| time (UTC) | temp C | wind direction | speed KPH | gust KPH | rain 1hr cm | rain 24hr cm | rain mn cm | humidity % | barometer mb |
| 20260508113516 | 11 | 270 | 8.0 | 12.9 | 0.00 | 0.00 | 0.00 | 68 | 1013.2 |
| 20260508113016 | 11 | 270 | 8.0 | 14.5 | 0.00 | 0.00 | 0.00 | 69 | 1013.1 |
| 20260508112516 | 11 | 315 | 6.4 | 11.3 | 0.00 | 0.00 | 0.00 | 69 | 1013.1 |
| 20260508112016 | 11 | 270 | 6.4 | 11.3 | 0.00 | 0.00 | 0.00 | 70 | 1013.1 |
| 20260508111516 | 11 | 248 | 4.8 | 9.7 | 0.00 | 0.00 | 0.00 | 70 | 1013.1 |
| 20260508111016 | 11 | 248 | 4.8 | 14.5 | 0.00 | 0.00 | 0.00 | 70 | 1013.0 |
| 20260508110516 | 10 | 248 | 3.2 | 8.0 | 0.00 | 0.00 | 0.00 | 71 | 1012.9 |
| 20260508110016 | 10 | 270 | 3.2 | 6.4 | 0.00 | 0.00 | 0.00 | 72 | 1012.8 |
| 20260508105535 | 10 | 293 | 4.8 | 9.7 | 0.00 | 0.00 | 0.00 | 72 | 1012.8 |
| 20260508105016 | 10 | 248 | 4.8 | 12.9 | 0.00 | 0.00 | 0.00 | 73 | 1012.7 |
| 20260508104516 | 10 | 315 | 1.6 | 4.8 | 0.00 | 0.00 | 0.00 | 73 | 1012.5 |
| 20260508104017 | 10 | 293 | 1.6 | 3.2 | 0.00 | 0.00 | 0.00 | 73 | 1012.5 |
| 20260508103515 | 10 | 0 | 1.6 | 4.8 | 0.00 | 0.00 | 0.00 | 73 | 1012.5 |
| 20260508103016 | 10 | 293 | 3.2 | 6.4 | 0.00 | 0.00 | 0.00 | 73 | 1012.4 |
| 20260508102516 | 10 | 315 | 3.2 | 8.0 | 0.00 | 0.00 | 0.00 | 73 | 1012.5 |
| 20260508102036 | 10 | 315 | 4.8 | 8.0 | 0.00 | 0.00 | 0.00 | 73 | 1012.4 |
| 20260508101537 | 10 | 315 | 4.8 | 11.3 | 0.00 | 0.00 | 0.00 | 73 | 1012.4 |
| 20260508101017 | 10 | 315 | 4.8 | 12.9 | 0.00 | 0.00 | 0.00 | 73 | 1012.4 |
| 20260508100517 | 10 | 315 | 1.6 | 6.4 | 0.00 | 0.00 | 0.00 | 73 | 1012.3 |
| 20260508100016 | 10 | 315 | 3.2 | 12.9 | 0.00 | 0.00 | 0.00 | 73 | 1012.3 |
| 20260508095516 | 10 | 315 | 4.8 | 12.9 | 0.00 | 0.00 | 0.00 | 72 | 1012.3 |
| 20260508095016 | 10 | 315 | 4.8 | 8.0 | 0.00 | 0.00 | 0.00 | 72 | 1012.2 |
| 20260508094536 | 10 | 315 | 3.2 | 11.3 | 0.00 | 0.00 | 0.00 | 72 | 1012.1 |
| 20260508094017 | 10 | 293 | 3.2 | 6.4 | 0.00 | 0.00 | 0.00 | 72 | 1012.2 |
| 20260508093516 | 10 | 338 | 4.8 | 9.7 | 0.00 | 0.00 | 0.00 | 72 | 1012.1 |
| 20260508093016 | 10 | 315 | 4.8 | 11.3 | 0.00 | 0.00 | 0.00 | 72 | 1012.1 |
| 20260508092515 | 10 | 315 | 4.8 | 8.0 | 0.00 | 0.00 | 0.00 | 72 | 1012.0 |
| 20260508092037 | 10 | 315 | 1.6 | 6.4 | 0.00 | 0.00 | 0.00 | 72 | 1011.9 |
| 20260508091515 | 10 | 45 | 1.6 | 6.4 | 0.00 | 0.00 | 0.00 | 72 | 1011.5 |
| 20260508091015 | 10 | 315 | 3.2 | 6.4 | 0.00 | 0.00 | 0.00 | 72 | 1011.7 |
| 20260508090515 | 10 | 338 | 4.8 | 16.1 | 0.00 | 0.00 | 0.00 | 71 | 1011.7 |
| 20260508090015 | 10 | 315 | 6.4 | 16.1 | 0.00 | 0.03 | 0.00 | 72 | 1011.7 |
| 20260508085515 | 10 | 338 | 4.8 | 16.1 | 0.00 | 0.03 | 0.00 | 72 | 1011.8 |
| 20260508085016 | 10 | 338 | 4.8 | 12.9 | 0.00 | 0.03 | 0.00 | 71 | 1011.7 |
| 20260508084516 | 10 | 338 | 4.8 | 12.9 | 0.00 | 0.03 | 0.00 | 71 | 1011.7 |
| 20260508084017 | 10 | 0 | 4.8 | 16.1 | 0.00 | 0.03 | 0.00 | 71 | 1011.6 |
| 20260508083515 | 10 | 315 | 3.2 | 12.9 | 0.00 | 0.03 | 0.00 | 70 | 1011.7 |
| 20260508083015 | 10 | 293 | 4.8 | 12.9 | 0.00 | 0.03 | 0.00 | 70 | 1011.8 |
| 20260508082517 | 10 | 315 | 8.0 | 16.1 | 0.00 | 0.03 | 0.00 | 70 | 1011.8 |
| 20260508082015 | 10 | 315 | 6.4 | 14.5 | 0.00 | 0.03 | 0.00 | 69 | 1011.7 |
| 20260508081515 | 10 | 315 | 6.4 | 17.7 | 0.00 | 0.03 | 0.00 | 69 | 1011.6 |
| 20260508081015 | 10 | 338 | 8.0 | 19.3 | 0.00 | 0.03 | 0.00 | 68 | 1011.5 |
| 20260508080517 | 10 | 338 | 8.0 | 24.1 | 0.00 | 0.03 | 0.00 | 66 | 1011.2 |
| 20260508080016 | 10 | 338 | 6.4 | 16.1 | 0.00 | 0.03 | 0.00 | 64 | 1011.1 |
| 20260508075515 | 10 | 338 | 6.4 | 19.3 | 0.00 | 0.03 | 0.00 | 62 | 1010.9 |
| 20260508075036 | 11 | 0 | 6.4 | 19.3 | 0.00 | 0.03 | 0.00 | 61 | 1010.8 |
| 20260508074515 | 11 | 0 | 6.4 | 19.3 | 0.00 | 0.03 | 0.00 | 61 | 1010.7 |
| 20260508074015 | 11 | 45 | 6.4 | 16.1 | 0.00 | 0.03 | 0.00 | 59 | 1010.7 |
| 20260508073516 | 11 | 0 | 3.2 | 9.7 | 0.00 | 0.03 | 0.00 | 59 | 1010.7 |
| 20260508073015 | 11 | 0 | 6.4 | 19.3 | 0.00 | 0.05 | 0.00 | 59 | 1010.7 |
| 20260508072515 | 11 | 23 | 4.8 | 16.1 | 0.00 | 0.05 | 0.00 | 59 | 1010.7 |
| 20260508072017 | 11 | 338 | 4.8 | 16.1 | 0.00 | 0.05 | 0.00 | 60 | 1010.7 |
| 20260508071517 | 11 | 0 | 4.8 | 16.1 | 0.00 | 0.05 | 0.00 | 60 | 1010.7 |
| 20260508071016 | 11 | 338 | 6.4 | 17.7 | 0.00 | 0.05 | 0.00 | 60 | 1010.6 |
| 20260508070517 | 11 | 45 | 4.8 | 14.5 | 0.00 | 0.05 | 0.00 | 60 | 1010.6 |
| 20260508070017 | 11 | 0 | 6.4 | 17.7 | 0.00 | 0.05 | 0.00 | 60 | 1010.7 |
| 20260508065515 | 11 | 45 | 6.4 | 20.9 | 0.00 | 0.05 | 0.00 | 62 | 1010.9 |
| 20260508065017 | 11 | 338 | 6.4 | 20.9 | 0.00 | 0.08 | 0.00 | 62 | 1010.9 |
| 20260508064517 | 12 | 338 | 8.0 | 24.1 | 0.00 | 0.08 | 0.00 | 62 | 1011.0 |
| 20260508064018 | 12 | 338 | 6.4 | 19.3 | 0.00 | 0.08 | 0.00 | 62 | 1011.0 |
| 20260508063517 | 12 | 338 | 8.0 | 19.3 | 0.00 | 0.10 | 0.00 | 62 | 1011.0 |
| 20260508063017 | 12 | 0 | 9.7 | 22.5 | 0.00 | 0.13 | 0.00 | 62 | 1010.9 |
| 20260508062517 | 12 | 315 | 14.5 | 27.4 | 0.00 | 0.15 | 0.00 | 62 | 1010.8 |
| 20260508062037 | 12 | 315 | 11.3 | 22.5 | 0.00 | 0.20 | 0.00 | 67 | 1010.9 |
| 20260508061517 | 12 | 315 | 8.0 | 14.5 | 0.00 | 0.23 | 0.00 | 75 | 1010.7 |
| 20260508061017 | 12 | 293 | 4.8 | 12.9 | 0.00 | 0.25 | 0.00 | 77 | 1010.6 |
| 20260508060518 | 12 | 270 | 8.0 | 17.7 | 0.00 | 0.28 | 0.00 | 77 | 1010.5 |
| 20260508060019 | 12 | 270 | 6.4 | 17.7 | 0.00 | 0.30 | 0.00 | 77 | 1010.5 |
| 20260508055517 | 12 | 293 | 4.8 | 9.7 | 0.00 | 0.36 | 0.00 | 77 | 1010.0 |
| 20260508055019 | 12 | 293 | 1.6 | 4.8 | 0.00 | 0.41 | 0.00 | 76 | 1009.6 |
| 20260508054518 | 12 | 0.0 | 1.6 | 0.00 | 0.41 | 0.00 | 76 | 1009.4 | |
| 20260508054017 | 12 | 0.0 | 1.6 | 0.00 | 0.41 | 0.00 | 76 | 1009.3 | |
| 20260508053517 | 12 | 270 | 3.2 | 8.0 | 0.00 | 0.41 | 0.00 | 76 | 1009.4 |
| 20260508053037 | 12 | 270 | 3.2 | 6.4 | 0.00 | 0.41 | 0.00 | 77 | 1009.5 |
| 20260508052558 | 12 | 248 | 3.2 | 8.0 | 0.00 | 0.41 | 0.00 | 77 | 1009.5 |
| 20260508052017 | 12 | 248 | 4.8 | 12.9 | 0.00 | 0.41 | 0.00 | 77 | 1009.7 |
| 20260508051517 | 12 | 225 | 4.8 | 9.7 | 0.00 | 0.41 | 0.00 | 77 | 1009.6 |
| 20260508051018 | 12 | 248 | 3.2 | 6.4 | 0.00 | 0.41 | 0.00 | 77 | 1009.5 |
| 20260508050518 | 12 | 225 | 1.6 | 4.8 | 0.00 | 0.41 | 0.00 | 77 | 1009.6 |
| 20260508050017 | 12 | 225 | 1.6 | 6.4 | 0.00 | 0.41 | 0.00 | 76 | 1009.5 |
| 20260508045558 | 12 | 225 | 3.2 | 8.0 | 0.00 | 0.41 | 0.00 | 76 | 1009.4 |
| 20260508045018 | 12 | 225 | 3.2 | 6.4 | 0.00 | 0.41 | 0.00 | 75 | 1009.3 |
| 20260508044617 | 12 | 225 | 3.2 | 8.0 | 0.00 | 0.41 | 0.00 | 75 | 1009.2 |
| 20260508044017 | 12 | 0.0 | 4.8 | 0.00 | 0.41 | 0.00 | 74 | 1009.1 | |
| 20260508043517 | 12 | 225 | 1.6 | 6.4 | 0.00 | 0.41 | 0.00 | 74 | 1009.1 |
| 20260508043017 | 12 | 225 | 1.6 | 6.4 | 0.00 | 0.41 | 0.00 | 74 | 1009.2 |
| 20260508042517 | 12 | 225 | 1.6 | 4.8 | 0.00 | 0.41 | 0.00 | 73 | 1009.3 |
| 20260508042017 | 12 | 0.0 | 4.8 | 0.00 | 0.41 | 0.00 | 73 | 1009.2 | |
| 20260508041517 | 12 | 0.0 | 4.8 | 0.00 | 0.41 | 0.00 | 73 | 1009.1 | |
| 20260508041017 | 12 | 0.0 | 4.8 | 0.00 | 0.41 | 0.00 | 73 | 1009.2 | |
| 20260508040518 | 12 | 0.0 | 0.0 | 0.00 | 0.41 | 0.00 | 73 | 1009.3 | |
| 20260508040019 | 12 | 203 | 1.6 | 4.8 | 0.00 | 0.41 | 0.41 | 73 | 1009.2 |
| 20260508035515 | 12 | 225 | 1.6 | 6.4 | 0.00 | 0.41 | 0.41 | 73 | 1009.4 |
| 20260508035015 | 12 | 203 | 1.6 | 6.4 | 0.00 | 0.41 | 0.41 | 72 | 1009.4 |
| 20260508034515 | 12 | 248 | 3.2 | 6.4 | 0.00 | 0.41 | 0.41 | 72 | 1009.4 |
| 20260508034015 | 12 | 203 | 1.6 | 4.8 | 0.00 | 0.41 | 0.41 | 72 | 1009.4 |
| 20260508033515 | 12 | 225 | 1.6 | 8.0 | 0.00 | 0.41 | 0.41 | 72 | 1009.4 |
| 20260508033016 | 12 | 225 | 4.8 | 8.0 | 0.00 | 0.41 | 0.41 | 72 | 1009.4 |
| 20260508032515 | 12 | 225 | 3.2 | 8.0 | 0.00 | 0.41 | 0.41 | 71 | 1009.5 |
| 20260508032017 | 12 | 0.0 | 4.8 | 0.00 | 0.41 | 0.41 | 71 | 1009.6 | |
| 20260508031517 | 13 | 0.0 | 4.8 | 0.00 | 0.41 | 0.41 | 71 | 1009.5 | |
| 20260508031036 | 13 | 0.0 | 3.2 | 0.00 | 0.41 | 0.41 | 70 | 1009.5 | |
| 20260508030516 | 13 | 225 | 1.6 | 8.0 | 0.00 | 0.41 | 0.41 | 70 | 1009.5 |
| 20260508030015 | 13 | 225 | 3.2 | 9.7 | 0.00 | 0.41 | 0.41 | 70 | 1009.4 |
| 20260508025515 | 13 | 225 | 3.2 | 8.0 | 0.00 | 0.41 | 0.41 | 69 | 1009.4 |
| 20260508025016 | 13 | 225 | 3.2 | 9.7 | 0.00 | 0.41 | 0.41 | 69 | 1009.5 |
| 20260508024515 | 13 | 225 | 6.4 | 16.1 | 0.00 | 0.41 | 0.41 | 68 | 1009.5 |
| 20260508024016 | 13 | 225 | 6.4 | 14.5 | 0.00 | 0.41 | 0.41 | 68 | 1009.5 |
| 20260508023516 | 13 | 203 | 3.2 | 9.7 | 0.00 | 0.41 | 0.41 | 67 | 1009.4 |
| 20260508023015 | 13 | 225 | 1.6 | 6.4 | 0.00 | 0.41 | 0.41 | 67 | 1009.4 |
| 20260508022515 | 14 | 225 | 3.2 | 12.9 | 0.00 | 0.41 | 0.41 | 66 | 1009.4 |
| 20260508022016 | 14 | 0.0 | 4.8 | 0.00 | 0.41 | 0.41 | 65 | 1009.4 | |
| 20260508021515 | 14 | 248 | 1.6 | 6.4 | 0.00 | 0.41 | 0.41 | 63 | 1009.3 |
| 20260508021015 | 15 | 0.0 | 0.0 | 0.00 | 0.41 | 0.41 | 62 | 1009.3 | |
| 20260508020555 | 15 | 0.0 | 1.6 | 0.00 | 0.41 | 0.41 | 60 | 1009.2 | |
| 20260508020136 | 15 | 225 | 1.6 | 9.7 | 0.00 | 0.41 | 0.41 | 59 | 1009.2 |
| 20260508015515 | 15 | 225 | 1.6 | 4.8 | 0.00 | 0.41 | 0.41 | 57 | 1009.2 |
| 20260508015015 | 15 | 225 | 1.6 | 6.4 | 0.00 | 0.41 | 0.41 | 55 | 1009.1 |
| 20260508014516 | 16 | 0.0 | 1.6 | 0.00 | 0.41 | 0.41 | 52 | 1009.0 | |
| 20260508014017 | 16 | 0.0 | 4.8 | 0.00 | 0.41 | 0.41 | 50 | 1009.0 | |
| 20260508013515 | 16 | 113 | 1.6 | 4.8 | 0.00 | 0.41 | 0.41 | 47 | 1009.0 |
| 20260508013017 | 16 | 68 | 1.6 | 8.0 | 0.00 | 0.41 | 0.41 | 42 | 1009.1 |
| 20260508012517 | 16 | 45 | 3.2 | 8.0 | 0.00 | 0.41 | 0.41 | 36 | 1009.1 |
| 20260508012018 | 16 | 338 | 3.2 | 8.0 | 0.00 | 0.41 | 0.41 | 36 | 1009.0 |
| 20260508011518 | 16 | 0 | 1.6 | 8.0 | 0.00 | 0.41 | 0.41 | 37 | 1009.0 |
| 20260508011037 | 16 | 23 | 1.6 | 9.7 | 0.00 | 0.41 | 0.41 | 37 | 1008.9 |
| 20260508010538 | 16 | 338 | 1.6 | 12.9 | 0.00 | 0.41 | 0.41 | 37 | 1008.8 |
| 20260508010037 | 16 | 0 | 1.6 | 6.4 | 0.00 | 0.41 | 0.41 | 37 | 1008.8 |
| 20260508005517 | 16 | 0 | 1.6 | 8.0 | 0.00 | 0.41 | 0.41 | 37 | 1008.6 |
| 20260508005037 | 16 | 45 | 1.6 | 4.8 | 0.00 | 0.41 | 0.41 | 36 | 1008.7 |
| 20260508004517 | 16 | 0.0 | 4.8 | 0.00 | 0.41 | 0.41 | 36 | 1008.6 | |
| 20260508004017 | 16 | 0.0 | 3.2 | 0.00 | 0.41 | 0.41 | 36 | 1008.6 | |
| 20260508003517 | 16 | 338 | 1.6 | 6.4 | 0.00 | 0.41 | 0.41 | 35 | 1008.6 |
| 20260508003037 | 16 | 0 | 3.2 | 8.0 | 0.00 | 0.41 | 0.41 | 34 | 1008.4 |
| 20260508002518 | 16 | 0 | 3.2 | 11.3 | 0.00 | 0.41 | 0.41 | 34 | 1008.4 |
| 20260508002017 | 16 | 45 | 1.6 | 6.4 | 0.00 | 0.41 | 0.41 | 34 | 1008.3 |
| 20260508001538 | 16 | 23 | 3.2 | 8.0 | 0.00 | 0.41 | 0.41 | 34 | 1008.2 |
| 20260508001017 | 17 | 0 | 3.2 | 14.5 | 0.00 | 0.41 | 0.41 | 34 | 1008.2 |
| 20260508000518 | 17 | 45 | 1.6 | 9.7 | 0.00 | 0.41 | 0.41 | 34 | 1008.2 |
| 20260508000018 | 17 | 45 | 1.6 | 6.4 | 0.00 | 0.41 | 0.41 | 33 | 1008.1 |
| 20260507235517 | 17 | 23 | 1.6 | 9.7 | 0.00 | 0.41 | 0.41 | 33 | 1008.1 |
| 20260507235018 | 17 | 45 | 1.6 | 9.7 | 0.00 | 0.41 | 0.41 | 33 | 1008.1 |
| 20260507234518 | 17 | 338 | 3.2 | 11.3 | 0.00 | 0.41 | 0.41 | 33 | 1008.1 |
| 20260507234017 | 17 | 45 | 3.2 | 9.7 | 0.00 | 0.41 | 0.41 | 33 | 1008.0 |
| 20260507233519 | 17 | 338 | 4.8 | 12.9 | 0.00 | 0.41 | 0.41 | 33 | 1007.9 |
| 20260507233037 | 17 | 0 | 3.2 | 11.3 | 0.00 | 0.41 | 0.41 | 32 | 1007.7 |
| 20260507232517 | 18 | 338 | 3.2 | 12.9 | 0.00 | 0.41 | 0.41 | 33 | 1007.7 |
| 20260507232017 | 18 | 338 | 3.2 | 9.7 | 0.00 | 0.41 | 0.41 | 33 | 1007.8 |
| 20260507231517 | 18 | 338 | 3.2 | 11.3 | 0.00 | 0.41 | 0.41 | 33 | 1007.8 |
| 20260507231017 | 18 | 45 | 3.2 | 14.5 | 0.00 | 0.41 | 0.41 | 32 | 1007.8 |
| 20260507230517 | 18 | 23 | 3.2 | 8.0 | 0.00 | 0.41 | 0.41 | 32 | 1007.8 |
| 20260507230017 | 18 | 0 | 3.2 | 12.9 | 0.00 | 0.41 | 0.41 | 32 | 1007.8 |
| 20260507225518 | 18 | 338 | 4.8 | 14.5 | 0.00 | 0.41 | 0.41 | 32 | 1007.7 |
| 20260507225017 | 18 | 338 | 4.8 | 9.7 | 0.00 | 0.41 | 0.41 | 31 | 1007.7 |
| 20260507224517 | 18 | 315 | 3.2 | 9.7 | 0.00 | 0.41 | 0.41 | 32 | 1007.7 |
| 20260507224017 | 18 | 338 | 3.2 | 9.7 | 0.00 | 0.41 | 0.41 | 31 | 1007.7 |
| 20260507223518 | 18 | 315 | 4.8 | 14.5 | 0.00 | 0.41 | 0.41 | 30 | 1007.7 |
| 20260507223017 | 18 | 315 | 4.8 | 14.5 | 0.00 | 0.41 | 0.41 | 30 | 1007.7 |
| 20260507222517 | 18 | 338 | 6.4 | 12.9 | 0.00 | 0.41 | 0.41 | 30 | 1007.7 |
| 20260507222018 | 18 | 315 | 6.4 | 16.1 | 0.00 | 0.41 | 0.41 | 31 | 1007.6 |
| 20260507221517 | 19 | 315 | 6.4 | 19.3 | 0.00 | 0.41 | 0.41 | 31 | 1007.6 |
| 20260507221018 | 19 | 338 | 6.4 | 14.5 | 0.00 | 0.41 | 0.41 | 31 | 1007.8 |
| 20260507220517 | 19 | 338 | 4.8 | 16.1 | 0.00 | 0.41 | 0.41 | 30 | 1007.7 |
| 20260507220017 | 19 | 0 | 6.4 | 12.9 | 0.00 | 0.41 | 0.41 | 31 | 1007.7 |
| 20260507215518 | 19 | 0 | 3.2 | 12.9 | 0.00 | 0.41 | 0.41 | 30 | 1007.7 |
| 20260507215017 | 19 | 338 | 4.8 | 14.5 | 0.00 | 0.41 | 0.41 | 31 | 1007.6 |
| 20260507214517 | 19 | 0 | 6.4 | 16.1 | 0.00 | 0.41 | 0.41 | 30 | 1007.6 |
| 20260507214017 | 19 | 45 | 4.8 | 12.9 | 0.00 | 0.41 | 0.41 | 30 | 1007.7 |
| 20260507213517 | 19 | 0 | 4.8 | 11.3 | 0.00 | 0.41 | 0.41 | 31 | 1007.7 |
| 20260507213017 | 19 | 23 | 3.2 | 17.7 | 0.00 | 0.41 | 0.41 | 31 | 1007.6 |
| 20260507212538 | 19 | 0 | 6.4 | 14.5 | 0.00 | 0.41 | 0.41 | 31 | 1007.5 |
| 20260507212017 | 19 | 338 | 3.2 | 8.0 | 0.00 | 0.41 | 0.41 | 31 | 1007.5 |
| 20260507211517 | 19 | 0 | 8.0 | 16.1 | 0.00 | 0.41 | 0.41 | 30 | 1007.4 |
| 20260507211017 | 19 | 293 | 3.2 | 11.3 | 0.00 | 0.41 | 0.41 | 31 | 1007.4 |
| 20260507210517 | 19 | 338 | 1.6 | 6.4 | 0.00 | 0.41 | 0.41 | 31 | 1007.4 |
| 20260507210017 | 18 | 270 | 3.2 | 9.7 | 0.00 | 0.41 | 0.41 | 32 | 1007.3 |
| 20260507205517 | 18 | 0 | 3.2 | 12.9 | 0.00 | 0.41 | 0.41 | 31 | 1007.4 |
| 20260507205017 | 19 | 338 | 6.4 | 14.5 | 0.00 | 0.41 | 0.41 | 31 | 1007.5 |
| 20260507204517 | 19 | 45 | 3.2 | 8.0 | 0.00 | 0.41 | 0.41 | 30 | 1007.5 |
| 20260507204018 | 19 | 45 | 6.4 | 16.1 | 0.00 | 0.41 | 0.41 | 29 | 1007.5 |
| 20260507203517 | 20 | 315 | 6.4 | 14.5 | 0.00 | 0.41 | 0.41 | 31 | 1007.5 |
| 20260507203017 | 19 | 0 | 4.8 | 16.1 | 0.00 | 0.41 | 0.41 | 30 | 1007.5 |
| 20260507202517 | 19 | 0 | 3.2 | 12.9 | 0.00 | 0.41 | 0.41 | 31 | 1007.6 |
| 20260507202059 | 19 | 45 | 4.8 | 12.9 | 0.00 | 0.41 | 0.41 | 30 | 1007.5 |
| 20260507201518 | 19 | 23 | 4.8 | 14.5 | 0.00 | 0.41 | 0.41 | 31 | 1007.6 |
| 20260507201039 | 19 | 0 | 4.8 | 12.9 | 0.00 | 0.41 | 0.41 | 30 | 1007.7 |
| 20260507200517 | 19 | 338 | 4.8 | 16.1 | 0.00 | 0.41 | 0.41 | 30 | 1007.7 |
| 20260507200017 | 19 | 315 | 3.2 | 14.5 | 0.00 | 0.41 | 0.41 | 30 | 1007.6 |
| 20260507195517 | 19 | 338 | 6.4 | 16.1 | 0.00 | 0.41 | 0.41 | 29 | 1007.7 |
| 20260507195017 | 20 | 338 | 4.8 | 12.9 | 0.00 | 0.41 | 0.41 | 30 | 1007.7 |
| 20260507194518 | 19 | 338 | 4.8 | 11.3 | 0.00 | 0.41 | 0.41 | 31 | 1007.8 |
| 20260507194037 | 19 | 338 | 6.4 | 14.5 | 0.00 | 0.41 | 0.41 | 30 | 1007.9 |
| 20260507193537 | 19 | 0 | 4.8 | 16.1 | 0.00 | 0.41 | 0.41 | 31 | 1007.8 |
| 20260507193016 | 19 | 0 | 4.8 | 12.9 | 0.00 | 0.41 | 0.41 | 30 | 1007.9 |
| 20260507192517 | 19 | 45 | 4.8 | 16.1 | 0.00 | 0.41 | 0.41 | 31 | 1007.9 |
| 20260507192017 | 19 | 315 | 6.4 | 14.5 | 0.00 | 0.41 | 0.41 | 31 | 1008.0 |
| 20260507191517 | 19 | 248 | 8.0 | 20.9 | 0.00 | 0.41 | 0.41 | 31 | 1008.0 |
| 20260507191016 | 19 | 270 | 11.3 | 22.5 | 0.00 | 0.41 | 0.41 | 30 | 1008.1 |
| 20260507190517 | 19 | 0 | 8.0 | 20.9 | 0.00 | 0.41 | 0.41 | 31 | 1008.1 |
| 20260507190017 | 19 | 338 | 6.4 | 20.9 | 0.00 | 0.41 | 0.41 | 30 | 1008.3 |
| 20260507185517 | 19 | 0 | 4.8 | 14.5 | 0.00 | 0.41 | 0.41 | 32 | 1008.3 |
| 20260507185017 | 19 | 0 | 4.8 | 12.9 | 0.00 | 0.41 | 0.41 | 31 | 1008.4 |
| 20260507184517 | 18 | 315 | 4.8 | 11.3 | 0.00 | 0.41 | 0.41 | 31 | 1008.4 |
| 20260507184037 | 18 | 338 | 4.8 | 14.5 | 0.00 | 0.41 | 0.41 | 31 | 1008.4 |
| 20260507183517 | 18 | 315 | 6.4 | 17.7 | 0.00 | 0.41 | 0.41 | 31 | 1008.4 |
| 20260507183017 | 18 | 45 | 4.8 | 14.5 | 0.00 | 0.41 | 0.41 | 31 | 1008.5 |
| 20260507182517 | 18 | 315 | 4.8 | 12.9 | 0.00 | 0.41 | 0.41 | 32 | 1008.6 |
| 20260507182037 | 18 | 293 | 4.8 | 11.3 | 0.00 | 0.41 | 0.41 | 32 | 1008.6 |
| 20260507181517 | 18 | 0 | 8.0 | 16.1 | 0.00 | 0.41 | 0.41 | 31 | 1008.8 |
| 20260507181017 | 18 | 293 | 6.4 | 16.1 | 0.00 | 0.41 | 0.41 | 31 | 1008.8 |
| 20260507180517 | 18 | 315 | 8.0 | 17.7 | 0.00 | 0.41 | 0.41 | 31 | 1009.0 |
| 20260507180018 | 18 | 338 | 6.4 | 12.9 | 0.00 | 0.41 | 0.41 | 32 | 1009.0 |
| 20260507175538 | 18 | 338 | 8.0 | 17.7 | 0.00 | 0.41 | 0.41 | 31 | 1009.1 |
| 20260507175017 | 18 | 338 | 4.8 | 12.9 | 0.00 | 0.41 | 0.41 | 31 | 1009.2 |
| 20260507174517 | 18 | 0 | 6.4 | 16.1 | 0.00 | 0.41 | 0.41 | 32 | 1009.3 |
| 20260507174017 | 18 | 0 | 6.4 | 19.3 | 0.00 | 0.41 | 0.41 | 32 | 1009.2 |
| 20260507173538 | 18 | 0 | 8.0 | 19.3 | 0.00 | 0.41 | 0.41 | 32 | 1009.3 |
| 20260507173017 | 17 | 270 | 4.8 | 11.3 | 0.00 | 0.41 | 0.41 | 32 | 1009.2 |
| 20260507172516 | 17 | 0 | 8.0 | 16.1 | 0.00 | 0.41 | 0.41 | 31 | 1009.3 |
| 20260507172018 | 17 | 0 | 4.8 | 17.7 | 0.00 | 0.43 | 0.41 | 31 | 1009.4 |
| 20260507171516 | 17 | 315 | 6.4 | 12.9 | 0.00 | 0.43 | 0.41 | 32 | 1009.5 |
| 20260507171017 | 17 | 0 | 4.8 | 14.5 | 0.00 | 0.43 | 0.41 | 32 | 1009.8 |
| 20260507170516 | 17 | 315 | 9.7 | 19.3 | 0.00 | 0.43 | 0.41 | 31 | 1009.6 |
| 20260507170016 | 17 | 293 | 6.4 | 19.3 | 0.00 | 0.43 | 0.41 | 32 | 1009.7 |
| 20260507165517 | 17 | 315 | 6.4 | 14.5 | 0.00 | 0.43 | 0.41 | 32 | 1009.8 |
| 20260507165018 | 17 | 315 | 8.0 | 17.7 | 0.00 | 0.43 | 0.41 | 31 | 1009.9 |
| 20260507164536 | 17 | 338 | 6.4 | 17.7 | 0.00 | 0.43 | 0.41 | 32 | 1010.0 |
| 20260507164017 | 17 | 315 | 6.4 | 14.5 | 0.00 | 0.43 | 0.41 | 33 | 1010.0 |
| 20260507163517 | 17 | 315 | 8.0 | 17.7 | 0.00 | 0.43 | 0.41 | 33 | 1010.0 |
| 20260507163016 | 17 | 338 | 8.0 | 16.1 | 0.00 | 0.46 | 0.41 | 32 | 1010.0 |
| 20260507162558 | 17 | 293 | 8.0 | 17.7 | 0.00 | 0.46 | 0.41 | 33 | 1010.1 |
| 20260507162016 | 16 | 315 | 8.0 | 19.3 | 0.00 | 0.46 | 0.41 | 32 | 1010.2 |
| 20260507161516 | 16 | 315 | 8.0 | 19.3 | 0.00 | 0.46 | 0.41 | 34 | 1010.3 |
| 20260507161017 | 16 | 0 | 8.0 | 19.3 | 0.00 | 0.46 | 0.41 | 33 | 1010.4 |
| 20260507160536 | 16 | 315 | 8.0 | 19.3 | 0.00 | 0.46 | 0.41 | 34 | 1010.5 |
| 20260507160036 | 16 | 315 | 9.7 | 17.7 | 0.00 | 0.46 | 0.41 | 35 | 1010.6 |
| 20260507155516 | 16 | 315 | 6.4 | 17.7 | 0.00 | 0.46 | 0.41 | 37 | 1010.7 |
| 20260507155016 | 16 | 338 | 4.8 | 11.3 | 0.00 | 0.46 | 0.41 | 38 | 1010.7 |
| 20260507154516 | 16 | 338 | 6.4 | 16.1 | 0.00 | 0.46 | 0.41 | 37 | 1010.7 |
| 20260507154017 | 16 | 315 | 8.0 | 19.3 | 0.00 | 0.46 | 0.41 | 37 | 1010.8 |
| 20260507153517 | 16 | 315 | 8.0 | 16.1 | 0.00 | 0.46 | 0.41 | 37 | 1010.8 |
| 20260507153016 | 15 | 0 | 6.4 | 17.7 | 0.00 | 0.46 | 0.41 | 38 | 1010.9 |
| 20260507152517 | 15 | 315 | 8.0 | 20.9 | 0.00 | 0.46 | 0.41 | 39 | 1010.8 |
| 20260507152038 | 15 | 315 | 9.7 | 22.5 | 0.00 | 0.46 | 0.41 | 39 | 1011.0 |
| 20260507151516 | 15 | 315 | 9.7 | 22.5 | 0.00 | 0.46 | 0.41 | 37 | 1011.0 |
| 20260507151037 | 15 | 315 | 9.7 | 20.9 | 0.00 | 0.46 | 0.41 | 38 | 1011.0 |
| 20260507150516 | 15 | 293 | 6.4 | 17.7 | 0.00 | 0.46 | 0.41 | 39 | 1011.0 |
| 20260507150016 | 15 | 315 | 9.7 | 19.3 | 0.00 | 0.46 | 0.41 | 38 | 1011.0 |
| 20260507145516 | 15 | 315 | 8.0 | 16.1 | 0.00 | 0.46 | 0.41 | 39 | 1011.0 |
| 20260507145037 | 15 | 0 | 9.7 | 19.3 | 0.00 | 0.46 | 0.41 | 38 | 1011.1 |
| 20260507144516 | 15 | 338 | 9.7 | 22.5 | 0.00 | 0.46 | 0.41 | 40 | 1011.2 |
| 20260507144016 | 15 | 315 | 8.0 | 19.3 | 0.00 | 0.46 | 0.41 | 44 | 1011.2 |
| 20260507143516 | 15 | 0 | 8.0 | 20.9 | 0.00 | 0.46 | 0.41 | 48 | 1011.2 |
| 20260507143017 | 14 | 0 | 8.0 | 17.7 | 0.00 | 0.46 | 0.41 | 50 | 1011.3 |
| 20260507142538 | 14 | 315 | 9.7 | 19.3 | 0.00 | 0.46 | 0.41 | 53 | 1011.2 |
| 20260507142038 | 14 | 0 | 8.0 | 16.1 | 0.00 | 0.46 | 0.41 | 55 | 1011.2 |
| 20260507141516 | 14 | 0 | 6.4 | 14.5 | 0.00 | 0.46 | 0.41 | 60 | 1011.2 |
| 20260507141016 | 13 | 315 | 8.0 | 19.3 | 0.00 | 0.46 | 0.41 | 62 | 1011.2 |
| 20260507140516 | 13 | 315 | 9.7 | 17.7 | 0.00 | 0.46 | 0.41 | 63 | 1011.2 |
| 20260507140017 | 13 | 338 | 6.4 | 17.7 | 0.00 | 0.46 | 0.41 | 64 | 1011.2 |
| 20260507135516 | 13 | 315 | 3.2 | 11.3 | 0.00 | 0.46 | 0.41 | 67 | 1011.1 |
| 20260507135018 | 13 | 315 | 8.0 | 17.7 | 0.00 | 0.46 | 0.41 | 66 | 1011.2 |
| 20260507134516 | 13 | 315 | 6.4 | 14.5 | 0.00 | 0.46 | 0.41 | 68 | 1011.2 |
| 20260507134016 | 12 | 315 | 6.4 | 16.1 | 0.00 | 0.46 | 0.41 | 69 | 1011.2 |
| 20260507133516 | 12 | 338 | 6.4 | 16.1 | 0.00 | 0.46 | 0.41 | 71 | 1011.2 |
| 20260507133017 | 12 | 315 | 6.4 | 16.1 | 0.00 | 0.46 | 0.41 | 72 | 1011.2 |
| 20260507132516 | 12 | 338 | 6.4 | 17.7 | 0.00 | 0.46 | 0.41 | 73 | 1011.1 |
| 20260507132016 | 12 | 270 | 6.4 | 12.9 | 0.00 | 0.46 | 0.41 | 74 | 1011.1 |
| 20260507131517 | 12 | 293 | 6.4 | 12.9 | 0.00 | 0.46 | 0.41 | 74 | 1011.2 |
| 20260507131017 | 12 | 315 | 6.4 | 12.9 | 0.00 | 0.46 | 0.41 | 75 | 1011.3 |
| 20260507130516 | 12 | 315 | 6.4 | 16.1 | 0.00 | 0.46 | 0.41 | 75 | 1011.3 |
| 20260507130016 | 11 | 315 | 6.4 | 17.7 | 0.00 | 0.46 | 0.41 | 75 | 1011.4 |
| 20260507125516 | 11 | 315 | 8.0 | 17.7 | 0.00 | 0.46 | 0.41 | 75 | 1011.4 |
| 20260507125038 | 11 | 338 | 8.0 | 16.1 | 0.00 | 0.46 | 0.41 | 75 | 1011.3 |
| 20260507124516 | 11 | 338 | 8.0 | 20.9 | 0.00 | 0.46 | 0.41 | 76 | 1011.4 |
| 20260507124017 | 11 | 315 | 6.4 | 19.3 | 0.00 | 0.46 | 0.41 | 77 | 1011.2 |
| 20260507123516 | 11 | 315 | 6.4 | 12.9 | 0.00 | 0.46 | 0.41 | 78 | 1011.3 |
| 20260507123016 | 11 | 315 | 6.4 | 16.1 | 0.00 | 0.46 | 0.41 | 78 | 1011.4 |
| 20260507122516 | 11 | 315 | 4.8 | 12.9 | 0.00 | 0.46 | 0.41 | 78 | 1011.4 |
| 20260507122016 | 11 | 315 | 6.4 | 14.5 | 0.00 | 0.46 | 0.41 | 78 | 1011.5 |
| 20260507121517 | 11 | 315 | 4.8 | 12.9 | 0.00 | 0.46 | 0.41 | 79 | 1011.4 |
| 20260507121016 | 11 | 338 | 4.8 | 12.9 | 0.00 | 0.46 | 0.41 | 79 | 1011.4 |
| 20260507120516 | 11 | 338 | 4.8 | 14.5 | 0.00 | 0.46 | 0.41 | 79 | 1011.3 |
| 20260507120016 | 11 | 315 | 4.8 | 12.9 | 0.00 | 0.46 | 0.41 | 79 | 1011.3 |
| 20260507115516 | 11 | 315 | 4.8 | 16.1 | 0.00 | 0.46 | 0.41 | 79 | 1011.0 |
| 20260507115016 | 11 | 315 | 6.4 | 20.9 | 0.00 | 0.46 | 0.41 | 79 | 1011.0 |
| 20260507114516 | 11 | 315 | 6.4 | 16.1 | 0.00 | 0.46 | 0.41 | 80 | 1010.9 |
| 20260507114017 | 11 | 315 | 6.4 | 16.1 | 0.00 | 0.46 | 0.41 | 80 | 1011.0 |